PDT,Max TemperatureF,Mean TemperatureF,Min TemperatureF,Max Dew PointF,MeanDew PointF,Min DewpointF,Max Humidity, Mean Humidity, Min Humidity, Max Sea Level PressureIn, Mean Sea Level PressureIn, Min Sea Level PressureIn, Max VisibilityMiles, Mean VisibilityMiles, Min VisibilityMiles, Max Wind SpeedMPH, Mean Wind SpeedMPH, Max Gust SpeedMPH,PrecipitationIn, CloudCover, Events, WindDirDegrees
2012-10-1,87,73,59,58,55,52,90,62,34,29.95,29.90,29.84,10,10,9,9,3,13,0.00,0,,223
2012-10-2,89,75,60,62,54,48,84,55,25,29.88,29.85,29.82,10,10,9,12,3,15,0.00,0,,192
2012-10-3,73,66,59,62,60,56,93,81,68,30.05,29.95,29.88,10,5,0,13,4,17,0.00,5,Fog,233
2012-10-4,71,66,60,58,57,56,90,76,61,30.14,30.09,30.05,10,9,7,13,4,18,0.00,4,,268
2012-10-5,74,66,58,61,58,55,100,81,61,30.09,30.03,29.93,10,7,0,13,3,,0.00,3,Fog,150
2012-10-6,75,66,57,61,58,52,90,75,60,29.99,29.94,29.88,10,10,9,12,4,16,0.00,0,,175
2012-10-7,75,66,56,60,57,54,93,76,58,29.96,29.93,29.90,10,10,9,12,4,17,0.00,0,,248
2012-10-8,73,65,56,58,56,52,93,75,57,30.01,29.97,29.94,10,10,10,14,5,20,0.00,0,,145
2012-10-9,72,64,56,59,56,52,93,73,53,30.01,29.98,29.95,10,10,10,14,7,17,0.00,2,,229
2012-10-10,71,63,55,58,55,53,93,73,53,30.01,29.97,29.93,10,10,10,13,5,16,0.00,3,,228
2012-10-11,70,62,54,54,52,49,93,70,47,29.99,29.94,29.89,10,10,10,16,6,21,T,2,,60
2012-10-12,70,62,54,56,52,48,84,69,53,30.18,30.10,29.99,10,10,10,16,6,21,0.00,3,,246
2012-10-13,73,63,52,57,52,49,93,71,49,30.22,30.15,30.08,10,10,10,13,4,16,0.00,0,,221
2012-10-14,84,68,52,59,54,48,89,62,34,30.08,30.02,29.96,10,10,10,14,4,16,0.00,0,,233
2012-10-15,88,71,54,60,53,44,86,56,25,29.96,29.91,29.87,10,10,10,13,3,15,0.00,0,,264
2012-10-16,83,70,56,59,51,44,84,56,28,29.88,29.82,29.75,10,10,10,10,4,14,0.00,0,,166
2012-10-17,85,71,57,61,53,48,72,51,29,29.83,29.79,29.75,10,10,10,10,3,,0.00,0,,233
2012-10-18,83,73,63,65,58,42,87,60,33,30.06,30.00,29.84,10,10,10,20,7,23,0.00,1,,112
2012-10-19,71,66,60,63,61,58,97,85,73,30.04,29.97,29.89,10,10,3,14,4,17,0.00,6,,264
2012-10-20,70,67,63,62,61,60,100,87,73,29.93,29.88,29.82,10,8,4,10,4,15,0.00,8,,266
2012-10-21,71,65,59,60,58,56,90,78,66,29.94,29.90,29.85,10,10,10,13,4,18,0.00,5,,254
2012-10-22,70,64,58,57,54,51,90,75,59,30.01,29.97,29.89,10,10,10,14,4,18,T,7,,256
2012-10-23,70,60,50,54,50,41,96,68,40,30.01,29.98,29.94,10,10,10,24,7,28,0.00,1,,281
2012-10-24,72,60,48,54,47,40,86,59,31,30.11,30.05,29.98,10,10,10,15,4,22,0.00,0,,41
2012-10-25,76,62,47,57,44,36,77,52,27,30.13,30.06,29.99,10,10,10,23,5,32,0.00,0,,300
2012-10-26,84,75,66,38,24,12,31,20,9,30.07,30.00,29.96,10,10,10,33,18,40,0.00,0,Rain,61
2012-10-27,93,76,58,48,28,11,56,32,7,29.95,29.90,29.84,10,10,10,20,9,26,0.00,0,,78
2012-10-28,77,65,52,55,43,29,67,46,25,30.04,29.95,29.91,10,10,9,14,3,16,0.00,0,,251
2012-10-29,76,62,47,55,44,35,86,61,35,30.12,30.07,30.04,10,10,10,12,3,14,0.00,0,,237
2012-10-30,70,58,45,55,49,41,100,76,51,30.11,30.05,30.00,10,7,0,9,3,,0.00,1,Fog,285
2012-10-31,70,60,50,55,53,48,100,79,57,30.10,30.02,29.98,10,6,0,13,4,15,0.00,6,Fog,84